[[{"header":{"parameterUnit":"m.s-1","parameterCategory":2,"la1":30.2991,"la2":30.254,"lo1":-89.0895,"lo2":-89.0444,"dy":0.0017,"dx":0.0017,"nx":28,"ny":28,"refTime":"2025-08-09T03:00:00:Z","depth":"0","parameterNumber":2,"parameterNumberName":"U-component_of_CURRENTS"},"data":[0,0,0,0,0,0,0,0,0,0,0,0,0,0,0,0,0,0,0,0,0,0,0,0,0,0,0,0,0,0,0,0,0,0,0,0,0,0,0,0,0,0,0,0,0,0,0,0,0,0,0,0,0,0,0,0,0,0,0.2231,0.223,0,0.22,0.22,0.2199,0.2163,0.2162,0.2162,0.2161,0.2135,0.2135,0.2135,0,0,0,0,0,0,0,0,0,0,0,0,0,0.2274,0.2273,0.2231,0.223,0.223,0.2201,0.22,0.2199,0.2163,0.2162,0.2162,0.2161,0.2135,0.2135,0.2135,0,0,0,0,0,0,0,0,0,0,0,0,0,0.2248,0.2273,0.2231,0.221,0.2208,0.2201,0.22,0.2199,0.2163,0.2162,0.2162,0.2161,0.2136,0.2135,0.2135,0.2142,0,0,0.2133,0.2133,0,0,0,0,0,0,0,0,0.225,0.2246,0.2213,0.2212,0.2209,0.2187,0.2206,0.2181,0.2163,0.2177,0.2161,0.2161,0.2155,0.2153,0.2145,0.2141,0.2139,0.2133,0.2132,0.2132,0.2132,0,0,0,0,0,0,0,0.2251,0.2248,0.2216,0.2213,0.2211,0.2209,0.2204,0.2201,0.2168,0.2176,0.2174,0.2175,0.2153,0.2145,0.2144,0.2139,0.2133,0.2132,0.2132,0.2132,0.2177,0.2178,0,0,0,0,0,0,0.226,0.2249,0.2217,0.2215,0.2231,0.2209,0.2203,0.2193,0.2168,0.2164,0.2175,0.2173,0.2147,0.2145,0.2143,0.2185,0.2132,0.2132,0.2131,0.2175,0.2177,0.2179,0,0,0,0,0,0,0.226,0.2257,0.2218,0.2234,0.223,0.2208,0.2197,0.2192,0.2186,0.2167,0.2163,0.2174,0.2146,0.2144,0.2149,0.2182,0.2132,0.2131,0.2173,0.2176,0.2178,0.2247,0,0,0,0,0,0,0.2262,0.2257,0.2254,0.2234,0.2229,0.2222,0.2198,0.2192,0.2189,0.2186,0.2166,0.2162,0.2145,0.215,0.2149,0.2181,0.2131,0.2171,0.2174,0.2177,0.2242,0.2251,0.2258,0,0,0,0,0,0.2263,0.2261,0.2254,0.225,0.2225,0.2223,0.222,0.2202,0.219,0.2193,0.2181,0.2163,0.2168,0.2151,0.2149,0.2181,0.217,0.2174,0.2177,0.2239,0.2249,0.2258,0,0,0,0,0,0,0.228,0.2257,0.2248,0.2239,0.2237,0.2218,0.2219,0.2208,0.2201,0.2197,0.2175,0.2172,0.2194,0.2178,0.216,0.2204,0.2169,0.2172,0.2217,0.2227,0.2234,0.2266,0.213,0,0,0,0,0,0.2283,0.2273,0.226,0.2256,0.2255,0.2239,0.2237,0.2227,0.2217,0.2212,0.22,0.2195,0.2207,0.2207,0.2209,0.2226,0.2241,0.2248,0.2256,0.2263,0.2289,0.2345,0.236,0.219,0.219,0.219,0,0,0.2289,0.2277,0.2271,0.2259,0.2253,0.2263,0.2235,0.2237,0.2253,0.2213,0.2228,0.2222,0.2219,0.2243,0.2252,0.2232,0.2317,0.2267,0.2273,0.2296,0.235,0.2367,0.2382,0.2192,0.2192,0.2191,0,0,0.2303,0.2286,0.2287,0.2289,0.2287,0.2282,0.2286,0.2274,0.2277,0.229,0.2276,0.2294,0.2289,0.2306,0.2312,0.2367,0.236,0.2361,0.2424,0.2478,0.2493,0.2506,0.2537,0.2553,0.2362,0.2362,0.2362,0,0.2315,0.231,0.2291,0.2302,0.2314,0.2295,0.2316,0.2319,0.2313,0.2338,0.2305,0.235,0.2329,0.2396,0.2406,0.2388,0.2408,0.2385,0.249,0.2503,0.2516,0.2544,0.2561,0.2366,0.2366,0.2365,0.2365,0,0.2331,0.2336,0.2342,0.2348,0.2361,0.2374,0.2383,0.2399,0.2398,0.241,0.2469,0.2453,0.2487,0.2479,0.2452,0.2539,0.252,0.2496,0.2467,0.2537,0.2562,0.2578,0.2371,0.237,0.2369,0.2368,0,0,0.2335,0.2349,0.2352,0.2372,0.2388,0.2402,0.2446,0.2491,0.2538,0.2542,0.2617,0.2625,0.2629,0.2638,0.2618,0.265,0.273,0.2608,0.2609,0.2643,0.2843,0.2744,0.2751,0.2724,0.2727,0.273,0.2821,0,0.2357,0.2385,0.2393,0.2438,0.2458,0.2478,0.2529,0.2572,0.2602,0.2666,0.2693,0.2743,0.2688,0.2706,0.2739,0.2743,0.2777,0.2707,0.2767,0.2769,0.2676,0.2768,0.2615,0.2676,0.2836,0.2839,0.2841,0,0.2368,0.2389,0.2431,0.2495,0.2509,0.2539,0.2627,0.2671,0.2764,0.2796,0.2866,0.2879,0.2952,0.2875,0.2955,0.2914,0.289,0.2878,0.2881,0.2781,0.2701,0.2634,0.2699,0.2627,0.2865,0.2863,0.2861,0,0.2372,0.242,0.2456,0.2472,0.2538,0.258,0.2624,0.2712,0.2771,0.2884,0.2939,0.303,0.3072,0.3094,0.306,0.3021,0.3129,0.3071,0.2966,0.2958,0.2837,0.2812,0.2844,0.3128,0.3127,0.3127,0.3127,0,0.2386,0.2417,0.2458,0.2479,0.2552,0.2595,0.2688,0.2751,0.2856,0.2939,0.3004,0.308,0.3126,0.3177,0.3138,0.3115,0.3201,0.301,0.2991,0.2852,0.2829,0.2766,0.2722,0.313,0.313,0.3129,0.3128,0,0.2383,0.2403,0.2454,0.2525,0.255,0.2604,0.2709,0.2774,0.2874,0.2987,0.3028,0.3149,0.3218,0.324,0.3278,0.32,0.3082,0.3144,0.2966,0.2923,0.2723,0.2687,0.2597,0.2521,0.306,0.3058,0.3057,0,0.2382,0.2403,0.2478,0.251,0.254,0.2617,0.2673,0.2776,0.284,0.3012,0.3062,0.3177,0.3228,0.3271,0.3178,0.3133,0.3032,0.2939,0.2825,0.2723,0.2671,0.2557,0.2493,0.2695,0.2691,0.2687,0.2684,0,0.2397,0.242,0.2465,0.252,0.257,0.2631,0.2707,0.2755,0.2878,0.2957,0.3061,0.312,0.316,0.3054,0.2995,0.2937,0.2776,0.2861,0.282,0.2452,0.227,0.2182,0.2618,0.2653,0.2657,0.2659,0.2661,0.2662,0.2415,0.2444,0.2492,0.2542,0.2586,0.2618,0.2635,0.2706,0.2778,0.2849,0.2968,0.2977,0.2921,0.2814,0.2755,0.2533,0.2538,0.2398,0.2385,0.2297,0.2151,0.2506,0.2471,0.2473,0.2474,0.2476,0.2477,0,0.2436,0.2463,0.2509,0.2547,0.2553,0.2589,0.2635,0.2617,0.2636,0.2707,0.2753,0.2641,0.2524,0.2453,0.2221,0.2072,0.1976,0.201,0.1842,0.1821,0.2202,0.2113,0.1919,0.1919,0.192,0.192,0.192,0.192,0.2457,0.2488,0.2499,0.2498,0.2505,0.2463,0.2458,0.2437,0.2446,0.2365,0.2277,0.2267,0.2196,0.2018,0.1815,0.1766,0.1633,0.1506,0.1556,0.185,0.1885,0.192,0.1828,0.1578,0.1578,0.1079,0.1075,0.1072]},{"header":{"parameterUnit":"m.s-1","parameterCategory":2,"la1":30.2991,"la2":30.254,"lo1":-89.0895,"lo2":-89.0444,"dy":0.0017,"dx":0.0017,"nx":28,"ny":28,"refTime":"2025-08-09T03:00:00:Z","depth":"0","parameterNumber":3,"parameterNumberName":"V-component_of_CURRENTS"},"data":[0,0,0,0,0,0,0,0,0,0,0,0,0,0,0,0,0,0,0,0,0,0,0,0,0,0,0,0,0,0,0,0,0,0,0,0,0,0,0,0,0,0,0,0,0,0,0,0,0,0,0,0,0,0,0,0,0,0,0.0122,0.0122,0,0.0136,0.0136,0.0136,0.0139,0.0139,0.0139,0.0139,0.0137,0.0136,0.0136,0,0,0,0,0,0,0,0,0,0,0,0,0,0.0088,0.0089,0.0122,0.0122,0.0123,0.0136,0.0136,0.0136,0.0139,0.0139,0.0139,0.0139,0.0137,0.0136,0.0136,0,0,0,0,0,0,0,0,0,0,0,0,0,0.0102,0.0089,0.0122,0.0126,0.0127,0.0136,0.0136,0.0136,0.0139,0.0139,0.0139,0.0139,0.0137,0.0136,0.0136,0.0138,0,0,0.0136,0.0136,0,0,0,0,0,0,0,0,0.0101,0.0103,0.0125,0.0126,0.0126,0.0136,0.0123,0.0136,0.0139,0.0134,0.0139,0.0139,0.0135,0.0135,0.0138,0.0138,0.0138,0.0136,0.0136,0.0136,0.0136,0,0,0,0,0,0,0,0.01,0.0103,0.0127,0.0125,0.0126,0.0124,0.0125,0.0126,0.0134,0.0134,0.0135,0.0137,0.0135,0.0138,0.0138,0.0138,0.0136,0.0136,0.0136,0.0136,0.0143,0.0143,0,0,0,0,0,0,0.01,0.0102,0.0127,0.0128,0.0114,0.0124,0.0126,0.0133,0.0134,0.0135,0.0137,0.0137,0.0138,0.0138,0.0137,0.0148,0.0136,0.0136,0.0136,0.0143,0.0143,0.0143,0,0,0,0,0,0,0.01,0.0103,0.0126,0.0115,0.0118,0.0125,0.0132,0.0133,0.0136,0.0137,0.0137,0.0139,0.0138,0.0137,0.0142,0.0147,0.0136,0.0136,0.0142,0.0143,0.0143,0.0162,0,0,0,0,0,0,0.0099,0.0102,0.0106,0.0115,0.0119,0.0135,0.0132,0.0133,0.0138,0.0138,0.0139,0.0138,0.0138,0.0142,0.0142,0.0147,0.0136,0.0142,0.0143,0.0143,0.0162,0.0163,0.0165,0,0,0,0,0,0.0097,0.0105,0.0106,0.0109,0.0124,0.0135,0.0137,0.0141,0.0138,0.0142,0.0143,0.0138,0.0144,0.0143,0.0142,0.0147,0.0142,0.0142,0.0143,0.0161,0.0163,0.0165,0,0,0,0,0,0,0.0091,0.0107,0.0108,0.0119,0.0127,0.0136,0.0141,0.0141,0.0146,0.0146,0.0143,0.0143,0.0148,0.0144,0.0143,0.0149,0.0141,0.0142,0.0155,0.0157,0.0159,0.0165,0.0136,0,0,0,0,0,0.0091,0.0102,0.0113,0.0122,0.0127,0.0133,0.0137,0.0141,0.0146,0.0148,0.0149,0.0148,0.015,0.0151,0.0152,0.0156,0.0159,0.0158,0.016,0.0161,0.0166,0.0177,0.018,0.0144,0.0144,0.0144,0,0,0.0091,0.0101,0.0107,0.0121,0.0128,0.0142,0.0136,0.0146,0.0157,0.0147,0.016,0.0155,0.0152,0.0159,0.0161,0.0157,0.0172,0.0162,0.0163,0.0167,0.0178,0.0181,0.0185,0.0145,0.0145,0.0145,0,0,0.01,0.0105,0.012,0.0129,0.0142,0.0148,0.0151,0.0161,0.0164,0.0175,0.017,0.0169,0.0172,0.0172,0.0172,0.0182,0.0181,0.018,0.0194,0.0205,0.0208,0.0211,0.0217,0.0221,0.0181,0.0181,0.0181,0,0.0098,0.0121,0.0124,0.0141,0.0153,0.0151,0.0171,0.0174,0.0183,0.0191,0.0182,0.0191,0.018,0.0193,0.0191,0.0187,0.0192,0.0187,0.0208,0.0211,0.0213,0.0219,0.0223,0.0182,0.0182,0.0182,0.0181,0,0.0123,0.0139,0.0148,0.0171,0.0182,0.0198,0.0206,0.0213,0.0214,0.0219,0.023,0.0219,0.0226,0.0217,0.0204,0.0217,0.0215,0.0209,0.0204,0.0218,0.0223,0.0226,0.0183,0.0183,0.0183,0.0182,0,0,0.0127,0.016,0.0164,0.0185,0.0201,0.0218,0.0231,0.0251,0.0273,0.0265,0.0296,0.0272,0.0266,0.0264,0.025,0.0248,0.0259,0.0234,0.0234,0.0243,0.0284,0.0272,0.0274,0.026,0.0261,0.0261,0.028,0,0.0147,0.019,0.0197,0.0236,0.0262,0.0265,0.0286,0.0299,0.0307,0.0336,0.0317,0.034,0.0285,0.0298,0.0282,0.0277,0.0269,0.0254,0.0267,0.0267,0.0257,0.0278,0.0309,0.0327,0.0283,0.0283,0.0284,0,0.0173,0.0201,0.0245,0.0288,0.0299,0.0319,0.036,0.0381,0.0404,0.0413,0.0416,0.041,0.0406,0.0365,0.0343,0.0339,0.0307,0.0291,0.0291,0.0277,0.0261,0.0306,0.0335,0.0275,0.0289,0.0288,0.0288,0,0.0193,0.0236,0.0276,0.0289,0.0333,0.0352,0.0378,0.0405,0.0446,0.0472,0.0514,0.0488,0.0519,0.0461,0.0411,0.0383,0.0399,0.036,0.0316,0.0315,0.0341,0.0341,0.0317,0.0341,0.0341,0.0341,0.0341,0,0.0222,0.0253,0.0291,0.0315,0.0375,0.0388,0.0456,0.0473,0.0525,0.0602,0.0563,0.0631,0.0549,0.0545,0.0456,0.0408,0.0433,0.0326,0.0323,0.0348,0.0348,0.0296,0.0249,0.0342,0.0342,0.0342,0.0342,0,0.0246,0.0265,0.0319,0.0368,0.0389,0.0436,0.0521,0.0577,0.0611,0.0715,0.0735,0.0763,0.0764,0.0671,0.0613,0.0501,0.0399,0.0406,0.0437,0.0435,0.0303,0.0256,0.0222,0.0186,0.0347,0.0347,0.0347,0,0.0265,0.0295,0.0364,0.0411,0.0437,0.051,0.0572,0.0619,0.0691,0.0811,0.0877,0.0914,0.0972,0.0869,0.0692,0.0543,0.0449,0.0442,0.0376,0.0308,0.0253,0.0216,0.0185,0.0421,0.0421,0.0422,0.0422,0,0.0309,0.033,0.0381,0.0472,0.054,0.0628,0.0718,0.0787,0.0871,0.0971,0.1116,0.1177,0.1102,0.0999,0.0779,0.0649,0.0399,0.0443,0.0378,0.0311,0.0267,0.0229,0.0389,0.0426,0.0425,0.0425,0.0425,0.0425,0.0348,0.0392,0.0459,0.0546,0.063,0.0737,0.0819,0.0934,0.1073,0.1245,0.1298,0.143,0.1251,0.0975,0.0791,0.0465,0.044,0.0357,0.0308,0.0278,0.0234,0.0392,0.0416,0.0416,0.0416,0.0415,0.0415,0,0.04,0.045,0.0533,0.0637,0.0733,0.0766,0.0914,0.1013,0.1191,0.1382,0.1528,0.1537,0.1321,0.1033,0.06,0.0378,0.0279,0.0259,0.0222,0.0195,0.0355,0.0348,0.0354,0.0354,0.0354,0.0354,0.0354,0.0354,0.0431,0.0511,0.0548,0.0701,0.078,0.0914,0.1,0.1157,0.1314,0.1551,0.1665,0.1738,0.1528,0.0849,0.0402,0.0282,0.0131,0.01,0.0015,0.0132,0.0138,0.0143,0.0126,0.0085,0.0085,-0.0106,-0.0107,-0.0109]}],[{"header":{"parameterUnit":"m.s-1","parameterCategory":2,"la1":30.2991,"la2":30.254,"lo1":-89.0895,"lo2":-89.0444,"dy":0.0017,"dx":0.0017,"nx":28,"ny":28,"refTime":"2025-08-09T03:00:00:Z","depth":"2","parameterNumber":2,"parameterNumberName":"U-component_of_CURRENTS"},"data":[0,0,0,0,0,0,0,0,0,0,0,0,0,0,0,0,0,0,0,0,0,0,0,0,0,0,0,0,0,0,0,0,0,0,0,0,0,0,0,0,0,0,0,0,0,0,0,0,0,0,0,0,0,0,0,0,0,0,0.1842,0.1842,0,0.1835,0.1835,0.1835,0.1824,0.1824,0.1824,0.1824,0.1827,0.1827,0.1827,0,0,0,0,0,0,0,0,0,0,0,0,0,0.1849,0.1849,0.1842,0.1842,0.1842,0.1835,0.1835,0.1835,0.1824,0.1824,0.1824,0.1824,0.1827,0.1827,0.1827,0,0,0,0,0,0,0,0,0,0,0,0,0,0.1843,0.1849,0.1842,0.1838,0.1837,0.1835,0.1835,0.1835,0.1824,0.1824,0.1824,0.1824,0.1827,0.1827,0.1827,0.1827,0,0,0.1827,0.1827,0,0,0,0,0,0,0,0,0.1843,0.1842,0.1838,0.1838,0.1838,0.1833,0.1839,0.1833,0.1824,0.1827,0.1824,0.1824,0.1831,0.1831,0.1826,0.1827,0.1827,0.1827,0.1827,0.1827,0.1827,0,0,0,0,0,0,0,0.1844,0.1842,0.1837,0.1838,0.1838,0.1838,0.1837,0.1838,0.1827,0.1826,0.1826,0.1829,0.1831,0.1826,0.1826,0.1827,0.1827,0.1827,0.1827,0.1827,0.1877,0.1878,0,0,0,0,0,0,0.1849,0.1843,0.1837,0.1837,0.1843,0.1838,0.1836,0.1832,0.1827,0.1827,0.1829,0.1829,0.1826,0.1826,0.1826,0.1867,0.1827,0.1827,0.1827,0.1876,0.1878,0.1879,0,0,0,0,0,0,0.1849,0.1848,0.1837,0.1842,0.1841,0.1838,0.1833,0.1832,0.1836,0.1829,0.1829,0.1836,0.1826,0.1826,0.1839,0.1866,0.1827,0.1827,0.1875,0.1876,0.1878,0.1923,0,0,0,0,0,0,0.1849,0.1848,0.185,0.1842,0.1841,0.1845,0.1833,0.1832,0.1839,0.1838,0.1835,0.1834,0.1826,0.1839,0.1839,0.1865,0.1828,0.1873,0.1875,0.1878,0.192,0.1927,0.1932,0,0,0,0,0,0.1849,0.185,0.185,0.185,0.1842,0.1845,0.1845,0.1841,0.1839,0.1844,0.1844,0.1835,0.1855,0.184,0.184,0.1867,0.1872,0.1875,0.1877,0.1918,0.1925,0.1932,0,0,0,0,0,0,0.1854,0.1849,0.1849,0.1848,0.1852,0.1845,0.1849,0.1848,0.1851,0.1853,0.1844,0.1844,0.187,0.1861,0.1845,0.189,0.1865,0.1868,0.1895,0.1902,0.1908,0.1916,0.1828,0,0,0,0,0,0.1857,0.1856,0.1855,0.1857,0.1859,0.1857,0.1859,0.1859,0.1859,0.186,0.186,0.1866,0.188,0.1885,0.1892,0.1909,0.1919,0.193,0.1936,0.1941,0.1948,0.1996,0.2007,0.1888,0.1888,0.1888,0,0,0.186,0.1858,0.1858,0.1859,0.186,0.1866,0.1858,0.1865,0.1879,0.1861,0.1879,0.1885,0.189,0.1914,0.1925,0.1911,0.1978,0.1944,0.1949,0.1953,0.2,0.2012,0.2022,0.189,0.189,0.189,0,0,0.1866,0.1864,0.1867,0.1873,0.1881,0.1879,0.1886,0.1887,0.1897,0.1914,0.1914,0.1935,0.1945,0.1959,0.1966,0.2009,0.201,0.2015,0.2048,0.2095,0.2105,0.2114,0.2135,0.2145,0.2016,0.2016,0.2016,0,0.1873,0.1872,0.1871,0.1879,0.1888,0.1888,0.1899,0.1909,0.1918,0.1937,0.1928,0.1971,0.1969,0.2013,0.2027,0.2023,0.2042,0.2019,0.2103,0.2112,0.2121,0.214,0.2151,0.2018,0.2018,0.2018,0.2018,0,0.1878,0.1885,0.1889,0.1897,0.191,0.1917,0.1934,0.195,0.1962,0.1978,0.2026,0.203,0.2058,0.2065,0.2057,0.2122,0.2113,0.2107,0.2084,0.2136,0.2152,0.2163,0.2022,0.2021,0.202,0.202,0,0,0.1872,0.1888,0.1891,0.1901,0.1919,0.1928,0.1961,0.1993,0.2026,0.2046,0.2098,0.212,0.2132,0.2142,0.2144,0.2179,0.2247,0.2171,0.2172,0.2189,0.2343,0.2265,0.2268,0.2263,0.2265,0.2267,0.2327,0,0.1877,0.1891,0.1904,0.1926,0.1934,0.1957,0.1992,0.2028,0.2059,0.211,0.2141,0.2191,0.216,0.2188,0.2217,0.2247,0.228,0.2231,0.2292,0.2293,0.2217,0.228,0.2072,0.2103,0.2338,0.2339,0.2341,0,0.1874,0.1885,0.1907,0.1944,0.1953,0.1972,0.203,0.2064,0.2138,0.2171,0.2222,0.2255,0.2314,0.2286,0.2354,0.2328,0.234,0.2354,0.2357,0.2276,0.2236,0.2092,0.2114,0.2358,0.2357,0.2356,0.2355,0,0.186,0.1888,0.1905,0.1915,0.1959,0.1985,0.2015,0.2083,0.2129,0.2223,0.2268,0.2336,0.2376,0.2418,0.2431,0.2412,0.2502,0.2479,0.2417,0.2411,0.2241,0.2215,0.2537,0.2537,0.2537,0.2537,0.2537,0,0.185,0.1864,0.1899,0.1908,0.1946,0.1984,0.2046,0.2086,0.2169,0.2225,0.2299,0.2349,0.2416,0.2467,0.2474,0.2473,0.2536,0.2437,0.2431,0.2248,0.2224,0.2448,0.2437,0.2539,0.2539,0.2538,0.2538,0,0.1829,0.1849,0.187,0.1917,0.1939,0.1965,0.205,0.2088,0.2174,0.225,0.229,0.2382,0.2443,0.2491,0.2558,0.2513,0.2537,0.2519,0.2286,0.2251,0.2401,0.2392,0.2466,0.2464,0.2462,0.2461,0.2459,0,0.1816,0.1825,0.1872,0.1884,0.1904,0.1959,0.1995,0.2082,0.212,0.2251,0.2272,0.2379,0.2407,0.247,0.2446,0.2455,0.2514,0.2255,0.2177,0.2412,0.24,0.2393,0.2386,0.1968,0.1963,0.1959,0.1956,0,0.1795,0.1815,0.1834,0.186,0.1886,0.1926,0.1977,0.2002,0.21,0.2152,0.2205,0.2252,0.2316,0.2226,0.2246,0.2218,0.2237,0.2168,0.2499,0.2014,0.1947,0.1933,0.1942,0.1918,0.1922,0.1925,0.1927,0.1928,0.1781,0.1781,0.1808,0.1822,0.1854,0.186,0.1862,0.1901,0.1935,0.1962,0.2061,0.2049,0.2077,0.1997,0.1934,0.1883,0.2041,0.1932,0.1944,0.196,0.1888,0.1821,0.1754,0.1757,0.1759,0.1761,0.1763,0,0.1744,0.1749,0.1764,0.1767,0.1764,0.1808,0.1825,0.1783,0.1755,0.1797,0.1815,0.1665,0.161,0.1649,0.151,0.1499,0.1471,0.143,0.1378,0.1416,0.145,0.135,0.1075,0.1073,0.1071,0.1069,0,0,0.172,0.1709,0.1704,0.1675,0.1678,0.1629,0.1611,0.1554,0.1546,0.1461,0.1436,0.1551,0.1606,0.1335,0.1287,0.1158,0.1277,0.1103,0.1656,0.1634,0.1665,0.1742,0.1632,0,0,0,0,0]},{"header":{"parameterUnit":"m.s-1","parameterCategory":2,"la1":30.2991,"la2":30.254,"lo1":-89.0895,"lo2":-89.0444,"dy":0.0017,"dx":0.0017,"nx":28,"ny":28,"refTime":"2025-08-09T03:00:00:Z","depth":"2","parameterNumber":3,"parameterNumberName":"V-component_of_CURRENTS"},"data":[0,0,0,0,0,0,0,0,0,0,0,0,0,0,0,0,0,0,0,0,0,0,0,0,0,0,0,0,0,0,0,0,0,0,0,0,0,0,0,0,0,0,0,0,0,0,0,0,0,0,0,0,0,0,0,0,0,0,0.0134,0.0134,0,0.0145,0.0145,0.0145,0.0145,0.0145,0.0145,0.0145,0.0144,0.0144,0.0144,0,0,0,0,0,0,0,0,0,0,0,0,0,0.0102,0.0103,0.0134,0.0134,0.0135,0.0145,0.0145,0.0146,0.0145,0.0145,0.0145,0.0145,0.0144,0.0144,0.0144,0,0,0,0,0,0,0,0,0,0,0,0,0,0.0115,0.0103,0.0134,0.0136,0.0136,0.0145,0.0145,0.0146,0.0145,0.0145,0.0145,0.0145,0.0144,0.0144,0.0144,0.0149,0,0,0.0145,0.0145,0,0,0,0,0,0,0,0,0.0114,0.0116,0.0135,0.0136,0.0136,0.0144,0.0134,0.0146,0.0145,0.0142,0.0145,0.0145,0.0143,0.0143,0.0146,0.0149,0.0149,0.0145,0.0145,0.0145,0.0145,0,0,0,0,0,0,0,0.0113,0.0116,0.0139,0.0136,0.0136,0.0132,0.0134,0.0136,0.0143,0.0142,0.0142,0.0143,0.0143,0.0146,0.0146,0.0149,0.0145,0.0145,0.0145,0.0145,0.0163,0.0164,0,0,0,0,0,0,0.0113,0.0115,0.0138,0.0139,0.0124,0.0133,0.0135,0.0141,0.0143,0.0144,0.0144,0.0143,0.0145,0.0145,0.0146,0.0163,0.0145,0.0145,0.0145,0.0163,0.0164,0.0164,0,0,0,0,0,0,0.0113,0.0115,0.0138,0.0127,0.0129,0.0134,0.0141,0.0142,0.0144,0.0145,0.0145,0.0145,0.0145,0.0145,0.0153,0.0162,0.0145,0.0145,0.0163,0.0163,0.0164,0.019,0,0,0,0,0,0,0.0112,0.0115,0.0119,0.0127,0.013,0.0147,0.0141,0.0142,0.0145,0.0145,0.0146,0.0146,0.0145,0.0153,0.0153,0.0162,0.0145,0.0162,0.0163,0.0164,0.0188,0.0191,0.0193,0,0,0,0,0,0.0111,0.012,0.012,0.0122,0.0136,0.0147,0.0149,0.015,0.0145,0.0151,0.0152,0.0146,0.0157,0.0153,0.0153,0.0163,0.0162,0.0163,0.0163,0.0187,0.0191,0.0193,0,0,0,0,0,0,0.0108,0.0121,0.0121,0.0133,0.014,0.0147,0.0152,0.0151,0.0156,0.0155,0.0152,0.0152,0.0162,0.0158,0.0154,0.017,0.0158,0.0159,0.0176,0.0179,0.0181,0.019,0.0145,0,0,0,0,0,0.0109,0.012,0.0129,0.0138,0.0143,0.0146,0.015,0.0152,0.0157,0.0159,0.016,0.0161,0.0166,0.0169,0.0172,0.0182,0.0173,0.0187,0.019,0.0192,0.0199,0.0199,0.0202,0.0167,0.0167,0.0167,0,0,0.011,0.0119,0.0124,0.0138,0.0143,0.016,0.0148,0.0158,0.0172,0.0158,0.0175,0.017,0.0171,0.0183,0.0187,0.0181,0.0195,0.0193,0.0195,0.0201,0.02,0.0204,0.0207,0.0167,0.0167,0.0167,0,0,0.0122,0.0126,0.0141,0.015,0.0161,0.0168,0.0171,0.0179,0.0183,0.0196,0.019,0.0193,0.0199,0.0204,0.0206,0.0224,0.0208,0.0221,0.0242,0.0243,0.0246,0.0248,0.023,0.0231,0.0223,0.0223,0.0223,0,0.0121,0.0147,0.0146,0.0165,0.0179,0.0173,0.0197,0.02,0.021,0.022,0.0205,0.0219,0.0212,0.0234,0.0235,0.0231,0.0221,0.0231,0.0246,0.0249,0.0251,0.0232,0.0232,0.0224,0.0224,0.0224,0.0224,0,0.0149,0.0169,0.0179,0.0205,0.0217,0.0236,0.0244,0.0254,0.0254,0.0258,0.0273,0.0261,0.0271,0.0265,0.0254,0.0269,0.0252,0.0249,0.0239,0.0256,0.0235,0.0235,0.0226,0.0226,0.0225,0.0225,0,0,0.0155,0.0193,0.0197,0.0223,0.0244,0.0262,0.0283,0.0309,0.0333,0.0323,0.0353,0.034,0.0327,0.0328,0.0312,0.0305,0.0299,0.0282,0.0281,0.0264,0.0286,0.0267,0.0265,0.0298,0.0298,0.0299,0.026,0,0.0181,0.023,0.024,0.029,0.032,0.0326,0.0353,0.0371,0.0378,0.0402,0.0383,0.0401,0.0353,0.036,0.0343,0.032,0.0302,0.0309,0.0271,0.027,0.0253,0.0267,0.0281,0.0248,0.026,0.026,0.026,0,0.021,0.0244,0.0296,0.0351,0.0365,0.039,0.044,0.0463,0.0484,0.049,0.0489,0.0474,0.0463,0.0422,0.0375,0.0381,0.0332,0.0303,0.0301,0.0278,0.0253,0.0235,0.0247,0.026,0.026,0.026,0.026,0,0.0231,0.0286,0.0334,0.0351,0.0405,0.0431,0.0461,0.0491,0.0529,0.0547,0.0575,0.0546,0.0547,0.0487,0.0406,0.0395,0.0352,0.0333,0.0267,0.0264,0.0267,0.0264,0.0298,0.0298,0.0298,0.0298,0.0298,0,0.0265,0.0304,0.0349,0.0378,0.0446,0.0465,0.0534,0.0556,0.0601,0.0662,0.0622,0.0656,0.0565,0.0525,0.0437,0.0352,0.0373,0.0274,0.026,0.0274,0.0272,0.0279,0.0277,0.0297,0.0297,0.0297,0.0298,0,0.0289,0.0313,0.0376,0.0436,0.0459,0.0509,0.0593,0.0646,0.0673,0.075,0.0763,0.0746,0.0696,0.0592,0.0499,0.0403,0.032,0.0281,0.0293,0.028,0.0219,0.0219,0.0207,0.0206,0.0206,0.0205,0.0205,0,0.0307,0.034,0.0418,0.0464,0.0495,0.0569,0.0629,0.068,0.0744,0.0812,0.0859,0.0829,0.0822,0.0664,0.0506,0.0353,0.0325,0.0247,0.0228,0.0226,0.0212,0.0214,0.0215,0.0233,0.0233,0.0233,0.0233,0,0.0348,0.037,0.0426,0.0515,0.0583,0.0671,0.0756,0.0819,0.089,0.0949,0.1012,0.1008,0.0867,0.0721,0.0503,0.0393,0.0272,0.0238,0.0251,0.0255,0.0247,0.0235,0.0236,0.0231,0.0231,0.0232,0.0232,0.0232,0.0379,0.0424,0.0491,0.0579,0.0658,0.076,0.0838,0.0929,0.1031,0.112,0.1111,0.1101,0.0933,0.0661,0.0472,0.0264,0.0281,0.0192,0.0194,0.0196,0.0207,0.0199,0.0174,0.0174,0.0174,0.0174,0.0174,0,0.0425,0.0474,0.0552,0.0658,0.0746,0.0782,0.0918,0.0994,0.1111,0.1174,0.1212,0.1041,0.0883,0.0681,0.0388,0.0211,0.0193,0.0135,0.016,0.0163,0.0166,0.0176,0.0134,0.0133,0.0133,0.0132,0,0,0.0452,0.0531,0.0568,0.071,0.0784,0.0904,0.0983,0.1088,0.1158,0.1207,0.1196,0.1175,0.0946,0.0718,0.0485,0.0313,0.027,0.0266,0.0319,0.0381,0.0385,0.0224,0.0246,0,0,0,0,0]}],[{"header":{"parameterUnit":"m.s-1","parameterCategory":2,"la1":30.2991,"la2":30.254,"lo1":-89.0895,"lo2":-89.0444,"dy":0.0017,"dx":0.0017,"nx":28,"ny":28,"refTime":"2025-08-09T03:00:00:Z","depth":"4","parameterNumber":2,"parameterNumberName":"U-component_of_CURRENTS"},"data":[0,0,0,0,0,0,0,0,0,0,0,0,0,0,0,0,0,0,0,0,0,0,0,0,0,0,0,0,0,0,0,0,0,0,0,0,0,0,0,0,0,0,0,0,0,0,0,0,0,0,0,0,0,0,0,0,0,0,0.111,0.111,0,0.1139,0.114,0.114,0.1174,0.1175,0.1175,0.1176,0.1228,0.1228,0.1229,0,0,0,0,0,0,0,0,0,0,0,0,0,0.1076,0.1076,0.111,0.111,0.1111,0.1139,0.114,0.114,0.1174,0.1175,0.1176,0.1176,0.1227,0.1228,0.1229,0,0,0,0,0,0,0,0,0,0,0,0,0,0.1095,0.1076,0.111,0.1133,0.1135,0.1139,0.114,0.114,0.1174,0.1175,0.1176,0.1177,0.1227,0.1228,0.1229,0.1215,0,0,0.1232,0.1233,0,0,0,0,0,0,0,0,0.1094,0.1096,0.1129,0.1131,0.1134,0.1156,0.1147,0.1167,0.1174,0.1157,0.1176,0.1177,0.1206,0.1209,0.1209,0.1218,0.122,0.1233,0.1233,0.1234,0.1234,0,0,0,0,0,0,0,0.1092,0.1095,0.112,0.1129,0.1132,0.1139,0.1143,0.115,0.1174,0.1159,0.1162,0.1168,0.1207,0.1208,0.1211,0.1221,0.1233,0.1233,0.1234,0.1235,0.1307,0.1308,0,0,0,0,0,0,0.1092,0.1093,0.1119,0.1121,0.1118,0.1139,0.1143,0.1146,0.1174,0.1179,0.1167,0.1169,0.1206,0.1209,0.1213,0.1268,0.1234,0.1235,0.1235,0.1306,0.1307,0.1309,0,0,0,0,0,0,0.1091,0.1093,0.1117,0.1109,0.1113,0.1139,0.1142,0.1146,0.1173,0.118,0.1186,0.1192,0.1207,0.1211,0.1243,0.1268,0.1235,0.1236,0.1304,0.1306,0.1308,0.1334,0,0,0,0,0,0,0.1089,0.1093,0.1106,0.1109,0.1114,0.1136,0.1141,0.1146,0.1174,0.1178,0.1203,0.1208,0.1208,0.1241,0.1244,0.1269,0.1237,0.1303,0.1305,0.1308,0.1332,0.1337,0.1341,0,0,0,0,0,0.1088,0.1095,0.1106,0.111,0.1127,0.1137,0.114,0.116,0.1175,0.1188,0.1209,0.1208,0.1259,0.1243,0.1246,0.1272,0.1302,0.1305,0.1307,0.133,0.1336,0.1341,0,0,0,0,0,0,0.1088,0.11,0.1112,0.1124,0.1139,0.1144,0.116,0.1173,0.1198,0.1211,0.1218,0.1224,0.1263,0.1264,0.1246,0.1302,0.1283,0.1286,0.1299,0.1305,0.1309,0.1301,0.1238,0,0,0,0,0,0.1094,0.1105,0.1116,0.113,0.1139,0.1155,0.1167,0.1181,0.1197,0.1211,0.1229,0.1251,0.1271,0.1286,0.1302,0.1326,0.1337,0.1348,0.1353,0.1357,0.1353,0.1401,0.1409,0.1318,0.1318,0.1318,0,0,0.1098,0.1107,0.1115,0.1132,0.1146,0.1155,0.1165,0.1189,0.1205,0.1211,0.1249,0.1269,0.1282,0.1313,0.1332,0.1321,0.1389,0.136,0.1363,0.1358,0.1405,0.1413,0.1421,0.132,0.132,0.132,0,0,0.1102,0.1122,0.113,0.1144,0.1169,0.1175,0.1188,0.1208,0.1231,0.1262,0.1276,0.1309,0.1339,0.1352,0.1362,0.1401,0.1413,0.1418,0.1433,0.148,0.1487,0.1494,0.1518,0.1527,0.1419,0.1419,0.1419,0,0.1112,0.1119,0.1136,0.1147,0.116,0.1185,0.1196,0.1216,0.1249,0.127,0.1282,0.1341,0.1354,0.1388,0.1404,0.1411,0.1436,0.1408,0.1485,0.1492,0.1499,0.1522,0.1531,0.1421,0.1421,0.1421,0.142,0,0.1112,0.1129,0.1137,0.1156,0.1173,0.1189,0.1214,0.1243,0.1275,0.1297,0.1353,0.1375,0.1411,0.1425,0.1425,0.1481,0.1483,0.1486,0.1468,0.1509,0.1531,0.154,0.1423,0.1423,0.1422,0.1422,0,0,0.1101,0.1131,0.1137,0.115,0.1182,0.1192,0.1226,0.1258,0.1293,0.1335,0.1381,0.1417,0.1445,0.1457,0.1474,0.151,0.1575,0.1521,0.1523,0.1539,0.1676,0.1546,0.1544,0.1602,0.1604,0.1606,0.1671,0,0.1099,0.1116,0.1134,0.1156,0.1165,0.1201,0.123,0.127,0.1314,0.1368,0.1406,0.1461,0.1454,0.1491,0.1522,0.157,0.1602,0.1556,0.1638,0.1639,0.1515,0.1551,0.1612,0.1678,0.168,0.1682,0.1683,0,0.1087,0.1101,0.1121,0.1158,0.1168,0.1192,0.1249,0.1282,0.1356,0.1399,0.1455,0.1495,0.1554,0.155,0.1634,0.1613,0.1644,0.167,0.1674,0.1547,0.1527,0.163,0.17,0.1698,0.1697,0.1696,0.1695,0,0.1055,0.109,0.1107,0.1119,0.1166,0.1195,0.123,0.1299,0.1341,0.1435,0.1482,0.1549,0.1605,0.1655,0.1699,0.1689,0.1787,0.178,0.1686,0.1677,0.1762,0.1754,0.1838,0.1838,0.1838,0.1838,0.1837,0,0.1028,0.1045,0.1101,0.1108,0.1147,0.119,0.1247,0.1296,0.1378,0.1429,0.1506,0.1551,0.1642,0.17,0.1726,0.1724,0.1812,0.1686,0.1686,0.1772,0.1764,0.1769,0.176,0.184,0.1839,0.1839,0.1839,0,0.0984,0.1019,0.1043,0.1104,0.1131,0.1164,0.1253,0.1288,0.138,0.145,0.1487,0.1584,0.1654,0.1715,0.1803,0.1749,0.1771,0.175,0.1831,0.1836,0.1623,0.1615,0.1647,0.1643,0.164,0.1637,0.1635,0,0.0958,0.0968,0.1038,0.1061,0.1094,0.1155,0.1192,0.1283,0.132,0.1449,0.1468,0.1575,0.1626,0.164,0.171,0.1742,0.1722,0.1712,0.1658,0.1606,0.1604,0.1602,0.1598,0.1629,0.1629,0.1628,0.1627,0,0.0912,0.0949,0.0971,0.102,0.1063,0.1099,0.1162,0.118,0.1279,0.1379,0.1419,0.1454,0.1522,0.1567,0.1602,0.162,0.1704,0.1676,0.1682,0.1632,0.1585,0.1586,0.1587,0.1615,0.1617,0.1618,0.1618,0,0.0886,0.089,0.093,0.0964,0.1013,0.102,0.1062,0.11,0.1149,0.1284,0.1296,0.1405,0.1507,0.1505,0.1538,0.1542,0.1517,0.1457,0.1474,0.1488,0.1402,0.1318,0.1264,0,0,0,0,0,0.0853,0.0848,0.0871,0.089,0.0932,0.0959,0.1027,0.1068,0.1168,0.1161,0.1224,0.1279,0.1321,0.1377,0.1351,0.1464,0.1521,0.1424,0.1459,0.155,0.1563,0.1475,0,0,0,0,0,0,0.0829,0.0848,0.0843,0.0822,0.0822,0.0852,0.0887,0.0952,0.0953,0.1068,0.1105,0.1192,0.1261,0.1331,0.1326,0.1342,0.1333,0.1495,0.1491,0.1542,0.1554,0.1565,0.1479,0,0,0,0,0]},{"header":{"parameterUnit":"m.s-1","parameterCategory":2,"la1":30.2991,"la2":30.254,"lo1":-89.0895,"lo2":-89.0444,"dy":0.0017,"dx":0.0017,"nx":28,"ny":28,"refTime":"2025-08-09T03:00:00:Z","depth":"4","parameterNumber":3,"parameterNumberName":"V-component_of_CURRENTS"},"data":[0,0,0,0,0,0,0,0,0,0,0,0,0,0,0,0,0,0,0,0,0,0,0,0,0,0,0,0,0,0,0,0,0,0,0,0,0,0,0,0,0,0,0,0,0,0,0,0,0,0,0,0,0,0,0,0,0,0,0.0143,0.0143,0,0.0153,0.0153,0.0153,0.0155,0.0155,0.0155,0.0155,0.0161,0.0161,0.0162,0,0,0,0,0,0,0,0,0,0,0,0,0,0.0117,0.0118,0.0143,0.0143,0.0143,0.0153,0.0153,0.0153,0.0155,0.0155,0.0155,0.0155,0.0161,0.0161,0.0162,0,0,0,0,0,0,0,0,0,0,0,0,0,0.0128,0.0118,0.0143,0.0145,0.0145,0.0153,0.0153,0.0153,0.0155,0.0155,0.0155,0.0155,0.0161,0.0161,0.0162,0.0167,0,0,0.0163,0.0163,0,0,0,0,0,0,0,0,0.0128,0.0129,0.0144,0.0145,0.0145,0.0152,0.0146,0.0158,0.0155,0.0152,0.0155,0.0155,0.0158,0.0158,0.0161,0.0168,0.0168,0.0163,0.0163,0.0163,0.0163,0,0,0,0,0,0,0,0.0127,0.0129,0.0147,0.0145,0.0145,0.0143,0.0144,0.0148,0.0156,0.0152,0.0152,0.0153,0.0158,0.0161,0.0161,0.0168,0.0163,0.0163,0.0164,0.0164,0.0193,0.0193,0,0,0,0,0,0,0.0126,0.0128,0.0147,0.0147,0.0135,0.0143,0.0145,0.015,0.0156,0.0156,0.0153,0.0153,0.016,0.0161,0.0161,0.0186,0.0163,0.0164,0.0164,0.0192,0.0193,0.0194,0,0,0,0,0,0,0.0125,0.0127,0.0146,0.0137,0.0139,0.0144,0.015,0.0151,0.0155,0.0156,0.0157,0.0156,0.016,0.0161,0.0172,0.0185,0.0164,0.0164,0.0192,0.0192,0.0193,0.0223,0,0,0,0,0,0,0.0124,0.0127,0.0132,0.0137,0.014,0.0155,0.015,0.0151,0.0155,0.0155,0.0159,0.016,0.016,0.0172,0.0173,0.0185,0.0165,0.0191,0.0192,0.0193,0.0222,0.0225,0.0228,0,0,0,0,0,0.0124,0.0133,0.0132,0.0134,0.0146,0.0155,0.0157,0.0159,0.0155,0.0161,0.0165,0.016,0.0179,0.0172,0.0173,0.0187,0.019,0.0192,0.0193,0.022,0.0224,0.0228,0,0,0,0,0,0,0.0124,0.0134,0.0133,0.0145,0.015,0.0156,0.0161,0.016,0.0168,0.0169,0.0167,0.0169,0.0183,0.018,0.0173,0.0198,0.0183,0.0185,0.0204,0.0207,0.0211,0.0218,0.0165,0,0,0,0,0,0.0126,0.0136,0.0142,0.0151,0.0154,0.0157,0.0161,0.0163,0.0169,0.0172,0.0176,0.018,0.0189,0.0194,0.0199,0.0213,0.0198,0.0222,0.0225,0.0227,0.0234,0.0224,0.0227,0.0197,0.0197,0.0197,0,0,0.0128,0.0135,0.014,0.0151,0.0156,0.0172,0.016,0.0169,0.0185,0.0172,0.0193,0.0191,0.0195,0.0212,0.0218,0.0211,0.0226,0.0229,0.0231,0.0236,0.0226,0.0229,0.0231,0.0198,0.0198,0.0198,0,0,0.0141,0.0144,0.0157,0.0166,0.0175,0.0181,0.0184,0.0192,0.0198,0.0214,0.0211,0.0218,0.0229,0.0237,0.0241,0.0265,0.0242,0.0264,0.0288,0.0278,0.028,0.0282,0.0255,0.0254,0.0266,0.0266,0.0266,0,0.0142,0.0164,0.0162,0.0179,0.0193,0.0187,0.021,0.0215,0.0226,0.0237,0.0225,0.0245,0.0244,0.0269,0.0277,0.0273,0.0255,0.0273,0.0282,0.0284,0.0285,0.0257,0.0256,0.0268,0.0268,0.0268,0.0267,0,0.0167,0.0186,0.0195,0.0218,0.0231,0.0248,0.0258,0.027,0.0272,0.0278,0.0296,0.0291,0.0303,0.0302,0.0297,0.0312,0.0291,0.0286,0.0272,0.029,0.0259,0.0257,0.027,0.027,0.0269,0.0269,0,0,0.0171,0.0207,0.0211,0.0234,0.0256,0.0272,0.0298,0.0324,0.0344,0.0342,0.0366,0.0371,0.0358,0.0362,0.0352,0.0344,0.0332,0.032,0.0319,0.0292,0.0295,0.0269,0.0264,0.0325,0.0325,0.0325,0.0265,0,0.0195,0.0238,0.025,0.0297,0.0323,0.0333,0.0362,0.0382,0.0389,0.0406,0.0396,0.0412,0.0384,0.0388,0.0375,0.0347,0.033,0.0348,0.0283,0.0281,0.0255,0.0263,0.0326,0.0263,0.0263,0.0262,0.0262,0,0.0218,0.0249,0.0298,0.035,0.0362,0.0388,0.0434,0.0459,0.0477,0.048,0.0481,0.0467,0.046,0.043,0.0382,0.0392,0.0347,0.0317,0.0314,0.0281,0.0253,0.0244,0.0259,0.0259,0.0259,0.0259,0.026,0,0.0231,0.0284,0.0328,0.0345,0.0398,0.0425,0.0455,0.0483,0.0513,0.0526,0.0538,0.0517,0.051,0.0457,0.0386,0.0384,0.032,0.0311,0.0242,0.0239,0.0266,0.0265,0.0274,0.0274,0.0275,0.0275,0.0275,0,0.0257,0.0293,0.034,0.0366,0.0427,0.0451,0.0511,0.0532,0.0564,0.06,0.0575,0.0584,0.0516,0.0468,0.0398,0.031,0.0326,0.0247,0.0227,0.0278,0.0279,0.0263,0.0263,0.0272,0.0273,0.0273,0.0274,0,0.0268,0.0297,0.0352,0.0412,0.0436,0.0479,0.0552,0.0591,0.0613,0.0655,0.0661,0.0634,0.0572,0.0489,0.04,0.0328,0.0249,0.0212,0.0262,0.0245,0.0167,0.0169,0.0133,0.0131,0.013,0.0129,0.0129,0,0.0279,0.0308,0.0382,0.0419,0.0451,0.0518,0.0568,0.0614,0.0653,0.0683,0.0701,0.0656,0.0623,0.0474,0.0383,0.0243,0.0221,0.0166,0.0177,0.0171,0.0155,0.0159,0.0162,0.0127,0.0127,0.0126,0.0126,0,0.03,0.0323,0.037,0.0444,0.0502,0.0574,0.0642,0.0672,0.0722,0.0739,0.0731,0.0659,0.0584,0.047,0.0358,0.0259,0.0197,0.0154,0.0156,0.0166,0.0164,0.015,0.0154,0.0122,0.0123,0.0123,0.0123,0,0.0313,0.0344,0.0401,0.0469,0.054,0.0608,0.0648,0.0694,0.0734,0.0758,0.0749,0.0673,0.0632,0.0478,0.0377,0.0274,0.0247,0.0203,0.0202,0.0205,0.0243,0.0252,0.0222,0,0,0,0,0,0.0327,0.0363,0.0422,0.0497,0.0566,0.0611,0.0689,0.0722,0.0761,0.0757,0.0756,0.0686,0.0539,0.0481,0.0375,0.0351,0.0225,0.022,0.0173,0.0101,0.0106,0.0136,0,0,0,0,0,0,0.0336,0.0391,0.042,0.0506,0.0558,0.064,0.0691,0.0722,0.0723,0.0739,0.0669,0.0639,0.0503,0.0598,0.0365,0.0336,0.0286,0.0159,0.0155,0.0099,0.0103,0.0106,0.0139,0,0,0,0,0]}]]